User: anonymous   Login
Location: Montr�al
(45.5000°N, 73.5830°W)
Time: 08:40:21
(UTC-04:00)
Language:

Cosmos 2369 - Orbit

View from above orbital plane
View from above orbital plane
View from above satellite
View from above satellite

Ground track
Ground track

The orbit data is extracted from the following two-line orbital elements,

1 26069U 00006A   14297.84975678  .00000450  00000-0  26511-3 0  3830
2 26069 070.9961 223.2852 0012743 256.2557 158.9133 14.13249059759593
Epoch (UTC): 24 October 2014 20:23:38
Eccentricity: 0.0012743
inclination: 70.9961°
perigee height: 839 km
apogee height: 857 km
right ascension of ascending node: 223.2852°
argument of perigee: 256.2557°
revolutions per day: 14.13249059
mean anomaly at epoch: 158.9133°
orbit number at epoch: 75959

The dashed part of the orbit path shows where the satellite is in the earth's shadow,  

DLR